Find Starlink 30897

NORAD ID: 58360 Int'l Des: 2023-177 Owner: SPXS Country: US Constellation: starlink operational
LEOCIRCULAR

リアルタイム位置

3D地球を読み込み中...

Starlink 30897について

説明を読み込み中...

次回通過

Passes for default location (London). Set your location on the main map for personalized predictions.

高度履歴

Loading altitude history...

軌道要素

1 58360U 23177K 26127.91668981 .00070202 00000-0 43969-2 0 9992
2 58360 42.9994 30.0950 0001903 226.1507 42.0062 15.08487268 5787
Epoch: May 7, 2026 • Age: 7 hours

現在のステータス

高度 547.4 km
速度 7.59 km/s
衛星直下点 -26.32°S, 61.95°E
打ち上げ日 Nov 18, 2023
運用期間 2.4 years
タイプ internet

技術仕様

分類 Payload
質量 730.00 kg
乾燥質量 700.00 kg
総質量 730.00 kg
長さ 0.30 m
直径 4.10 m
スパン 29.00 m
形状 Box + pan
製造者 SPXS
バスタイプ Starlink V2M
フェーズステータス In Orbit
所有者/国 SPXS/US

Most Searched